User: anonymous   Login
Location: ????? ??????
(37.8317°N, 23.8750°E)
Time: 02:56:20
(UTC+00:00)
Language:

EXPRESS MD2 - Orbit

View from above orbital plane
View from above orbital plane
View from above satellite
View from above satellite

Ground track
Ground track

The orbit data is extracted from the following two-line orbital elements,

1 38745U 12044B   21102.34952366  .00013845  28262-5  33964-3 0  9996
2 38745  49.8868  60.4305 2185433 344.3811   9.8714 11.08931425340437
Epoch (UTC): 12 April 2021 08:23:18
Eccentricity: 0.2185433
inclination: 49.8868°
perigee height: 260 km
apogee height: 3972 km
right ascension of ascending node: 60.4305°
argument of perigee: 344.3811°
revolutions per day: 11.08931425
mean anomaly at epoch: 9.8714°
orbit number at epoch: 34043

The dashed part of the orbit path shows where the satellite is in the earth's shadow,  

DLR